FLI414 EKVG-EGPH

Flight info

Callsign FLI414
Flight time 1h 20m
Altitude 33000
Route ODEVA DCT NALAN DCT LAGAV/N0416F240 N560 FOYLE DCT STIRA
Aircraft A320/M-SDE3FGHIRWY/LB1

Departure

Time 2026-04-22 18:37
Airport Vágar Airport (EKVG)

Arrival

Time 2026-04-22 19:57
Airport Edinburgh Airport (EGPH)
Time Latitude Longitude Altitude Speed Heading
2026-04-22 17:24 62.06703 -7.28005 298 ft 0 kts 64°
2026-04-22 18:25 62.06702 -7.27991 297 ft 2 kts 101°
2026-04-22 18:26 62.06692 -7.27997 293 ft 0 kts 213°
2026-04-22 18:27 62.06690 -7.28001 293 ft 4 kts 215°
2026-04-22 18:27 62.06654 -7.28052 294 ft 7 kts 208°
2026-04-22 18:27 62.06599 -7.28073 292 ft 8 kts 181°
2026-04-22 18:27 62.06557 -7.28081 293 ft 1 kts 191°
2026-04-22 18:28 62.06556 -7.28082 293 ft 0 kts 191°
2026-04-22 18:31 62.06554 -7.28083 294 ft 0 kts 191°
2026-04-22 18:33 62.06553 -7.28083 294 ft 1 kts 191°
2026-04-22 18:33 62.06510 -7.28114 294 ft 9 kts 204°
2026-04-22 18:33 62.06437 -7.28047 292 ft 20 kts 114°
2026-04-22 18:33 62.06352 -7.27717 293 ft 31 kts 119°
2026-04-22 18:34 62.06239 -7.27259 283 ft 37 kts 118°
2026-04-22 18:34 62.06119 -7.26779 283 ft 37 kts 118°
2026-04-22 18:34 62.06022 -7.26388 278 ft 24 kts 116°
2026-04-22 18:34 62.05969 -7.26180 271 ft 22 kts 119°
2026-04-22 18:35 62.05945 -7.26022 271 ft 8 kts 92°
2026-04-22 18:35 62.05935 -7.26024 271 ft 4 kts 254°
2026-04-22 18:35 62.05956 -7.26122 270 ft 2 kts 297°
2026-04-22 18:35 62.05956 -7.26123 270 ft 0 kts 297°
2026-04-22 18:36 62.06026 -7.26407 275 ft 61 kts 298°
2026-04-22 18:36 62.06346 -7.27701 292 ft 130 kts 297°
2026-04-22 18:37 62.06842 -7.29685 489 ft 164 kts 296°
2026-04-22 18:37 62.07350 -7.31854 1358 ft 164 kts 294°
2026-04-22 18:37 62.07784 -7.34113 2175 ft 166 kts 287°
2026-04-22 18:37 62.08154 -7.36550 2582 ft 182 kts 285°
2026-04-22 18:38 62.08551 -7.39290 2823 ft 205 kts 285°
2026-04-22 18:38 62.08992 -7.42330 3178 ft 225 kts 285°
2026-04-22 18:38 62.09432 -7.45612 3819 ft 234 kts 279°
2026-04-22 18:39 62.09323 -7.52583 5416 ft 241 kts 253°
2026-04-22 18:39 62.08700 -7.55917 6211 ft 244 kts 240°
2026-04-22 18:39 62.07714 -7.58879 7013 ft 247 kts 226°
2026-04-22 18:39 62.06410 -7.61287 7795 ft 249 kts 212°
2026-04-22 18:40 62.04865 -7.62963 8601 ft 251 kts 198°
2026-04-22 18:40 62.03159 -7.63800 9412 ft 253 kts 185°
2026-04-22 18:40 62.01391 -7.63717 10221 ft 256 kts 171°
2026-04-22 18:40 61.99672 -7.62702 10990 ft 258 kts 157°
2026-04-22 18:41 61.98109 -7.60802 11729 ft 261 kts 143°
2026-04-22 18:41 61.96797 -7.58113 12474 ft 264 kts 129°
2026-04-22 18:41 61.95851 -7.54752 13217 ft 267 kts 114°
2026-04-22 18:41 61.95336 -7.50939 13972 ft 271 kts 99°
2026-04-22 18:42 61.95128 -7.46869 14402 ft 287 kts 98°
2026-04-22 18:42 61.94906 -7.42492 14535 ft 310 kts 98°
2026-04-22 18:42 61.94661 -7.37789 14661 ft 331 kts 98°
2026-04-22 18:42 61.94396 -7.32775 14795 ft 351 kts 98°
2026-04-22 18:43 61.94116 -7.27479 15216 ft 360 kts 98°
2026-04-22 18:43 61.93836 -7.22169 15800 ft 364 kts 98°
2026-04-22 18:43 61.93553 -7.16800 16391 ft 366 kts 99°
2026-04-22 18:43 61.93265 -7.11416 17011 ft 369 kts 99°
2026-04-22 18:44 61.92969 -7.05984 17640 ft 371 kts 99°
2026-04-22 18:44 61.92669 -7.00533 18267 ft 374 kts 99°
2026-04-22 18:44 61.92363 -6.95036 18877 ft 376 kts 99°
2026-04-22 18:44 61.92052 -6.89501 19443 ft 378 kts 100°
2026-04-22 18:45 61.91739 -6.83975 20020 ft 379 kts 100°
2026-04-22 18:45 61.91421 -6.78414 20601 ft 380 kts 100°
2026-04-22 18:45 61.91100 -6.72839 21165 ft 381 kts 100°
2026-04-22 18:45 61.90779 -6.67256 21716 ft 382 kts 100°
2026-04-22 18:46 61.90458 -6.61660 22253 ft 383 kts 100°
2026-04-22 18:46 61.90135 -6.56043 22769 ft 384 kts 100°
2026-04-22 18:46 61.89810 -6.50413 23274 ft 385 kts 100°
2026-04-22 18:46 61.89484 -6.44773 23719 ft 387 kts 101°
2026-04-22 18:47 61.89170 -6.39097 24180 ft 388 kts 100°
2026-04-22 18:47 61.88866 -6.33398 24553 ft 390 kts 100°
2026-04-22 18:47 61.88566 -6.27682 24918 ft 391 kts 100°
2026-04-22 18:47 61.88267 -6.21945 25275 ft 393 kts 100°
2026-04-22 18:48 61.87969 -6.16172 25629 ft 394 kts 100°
2026-04-22 18:48 61.87673 -6.10378 25980 ft 396 kts 100°
2026-04-22 18:48 61.87379 -6.04569 26323 ft 397 kts 101°
2026-04-22 18:48 61.87087 -5.98763 26651 ft 399 kts 101°
2026-04-22 18:49 61.86793 -5.92891 26981 ft 400 kts 101°
2026-04-22 18:49 61.86501 -5.87000 27298 ft 402 kts 101°
2026-04-22 18:49 61.86209 -5.81109 27613 ft 404 kts 101°
2026-04-22 18:49 61.85917 -5.75177 27909 ft 405 kts 101°
2026-04-22 18:50 61.85628 -5.69223 28157 ft 407 kts 101°
2026-04-22 18:50 61.85348 -5.63246 28425 ft 409 kts 101°
2026-04-22 18:50 61.85070 -5.57241 28707 ft 410 kts 101°
2026-04-22 18:50 61.84788 -5.51142 28986 ft 412 kts 101°
2026-04-22 18:51 61.84510 -5.45101 29237 ft 413 kts 101°
2026-04-22 18:51 61.84233 -5.39041 29487 ft 414 kts 101°
2026-04-22 18:51 61.83956 -5.32963 29757 ft 415 kts 101°
2026-04-22 18:51 61.83682 -5.26889 30103 ft 413 kts 101°
2026-04-22 18:52 61.83412 -5.20849 30459 ft 412 kts 101°
2026-04-22 18:52 61.83146 -5.14812 30779 ft 411 kts 101°
2026-04-22 18:52 61.82880 -5.08851 31067 ft 410 kts 101°
2026-04-22 18:52 61.82606 -5.02795 31354 ft 410 kts 101°
2026-04-22 18:53 61.82333 -4.96796 31575 ft 409 kts 101°
2026-04-22 18:53 61.82073 -4.90817 31873 ft 408 kts 101°
2026-04-22 18:53 61.81795 -4.84863 32171 ft 404 kts 104°
2026-04-22 18:53 61.81020 -4.79262 32455 ft 394 kts 119°
2026-04-22 18:54 61.79558 -4.74444 32733 ft 388 kts 133°
2026-04-22 18:54 61.77532 -4.70730 33007 ft 387 kts 147°
2026-04-22 18:54 61.75082 -4.68369 33272 ft 391 kts 161°
2026-04-22 18:54 61.72376 -4.67545 33490 ft 399 kts 175°
2026-04-22 18:55 61.69599 -4.68403 33546 ft 414 kts 191°
2026-04-22 18:55 61.66961 -4.71126 33547 ft 432 kts 208°
2026-04-22 18:55 61.62433 -4.79821 33546 ft 443 kts 215°
2026-04-22 18:56 61.57962 -4.88722 33544 ft 443 kts 215°
2026-04-22 18:56 61.53474 -4.97566 33545 ft 444 kts 215°
2026-04-22 18:57 61.48954 -5.06408 33541 ft 444 kts 215°
2026-04-22 18:57 61.44432 -5.15208 33543 ft 444 kts 215°
2026-04-22 18:58 61.39905 -5.23999 33543 ft 444 kts 215°
2026-04-22 18:58 61.35354 -5.32840 33545 ft 445 kts 215°
2026-04-22 18:59 61.30813 -5.41584 33552 ft 444 kts 215°
2026-04-22 18:59 61.26269 -5.50296 33549 ft 444 kts 215°
2026-04-22 19:00 61.21727 -5.58965 33618 ft 444 kts 215°
2026-04-22 19:00 61.17181 -5.67618 33552 ft 443 kts 215°
2026-04-22 19:01 61.12640 -5.76211 33544 ft 443 kts 215°
2026-04-22 19:01 61.08089 -5.84805 33542 ft 443 kts 215°
2026-04-22 19:02 61.03351 -5.92765 33541 ft 432 kts 203°
2026-04-22 19:02 61.00652 -5.95320 33541 ft 422 kts 192°
2026-04-22 19:02 60.97826 -5.96717 33541 ft 414 kts 182°
2026-04-22 19:03 60.92196 -5.96150 33543 ft 403 kts 163°
2026-04-22 19:03 60.86691 -5.93407 33554 ft 412 kts 164°
2026-04-22 19:04 60.81052 -5.90653 33558 ft 420 kts 164°
2026-04-22 19:04 60.75303 -5.87872 33558 ft 422 kts 164°
2026-04-22 19:05 60.69582 -5.85096 33555 ft 423 kts 164°
2026-04-22 19:05 60.63863 -5.82316 33554 ft 423 kts 164°
2026-04-22 19:06 60.58116 -5.79536 33558 ft 426 kts 164°
2026-04-22 19:07 60.50425 -5.75840 33550 ft 427 kts 165°
2026-04-22 19:07 60.44638 -5.73099 33551 ft 427 kts 165°
2026-04-22 19:08 60.38858 -5.70347 33552 ft 427 kts 165°
2026-04-22 19:08 60.33071 -5.67587 33566 ft 427 kts 165°
2026-04-22 19:09 60.27273 -5.64824 33544 ft 429 kts 165°
2026-04-22 19:09 60.21454 -5.62073 33537 ft 430 kts 165°
2026-04-22 19:10 60.15622 -5.59345 33534 ft 431 kts 165°
2026-04-22 19:10 60.09750 -5.56607 33537 ft 431 kts 165°
2026-04-22 19:11 60.03906 -5.53877 33538 ft 432 kts 166°
2026-04-22 19:11 59.98046 -5.51148 33530 ft 433 kts 166°
2026-04-22 19:12 59.92163 -5.48428 33528 ft 434 kts 166°
2026-04-22 19:12 59.86271 -5.45704 33529 ft 435 kts 166°
2026-04-22 19:13 59.80414 -5.42996 33541 ft 426 kts 166°
2026-04-22 19:13 59.74673 -5.40380 33541 ft 423 kts 166°
2026-04-22 19:14 59.68932 -5.37767 33548 ft 424 kts 166°
2026-04-22 19:14 59.63183 -5.35142 33540 ft 424 kts 166°
2026-04-22 19:15 59.57411 -5.32520 33544 ft 430 kts 166°
2026-04-22 19:15 59.51528 -5.29862 33545 ft 437 kts 166°
2026-04-22 19:16 59.45573 -5.27192 33546 ft 442 kts 167°
2026-04-22 19:16 59.39542 -5.24498 33540 ft 444 kts 167°
2026-04-22 19:17 59.33511 -5.21782 33541 ft 445 kts 167°
2026-04-22 19:17 59.27435 -5.19069 33540 ft 445 kts 167°
2026-04-22 19:18 59.21441 -5.16424 33536 ft 445 kts 167°
2026-04-22 19:18 59.15360 -5.13757 33517 ft 446 kts 168°
2026-04-22 19:19 59.09305 -5.11084 33500 ft 446 kts 168°
2026-04-22 19:19 59.03261 -5.08418 33514 ft 445 kts 167°
2026-04-22 19:20 58.97216 -5.05762 33515 ft 445 kts 167°
2026-04-22 19:20 58.91165 -5.03130 33508 ft 446 kts 169°
2026-04-22 19:21 58.85101 -5.00513 33497 ft 447 kts 169°
2026-04-22 19:21 58.79020 -4.97880 33511 ft 448 kts 168°
2026-04-22 19:22 58.72926 -4.95259 33508 ft 449 kts 169°
2026-04-22 19:22 58.66825 -4.92636 33499 ft 449 kts 169°
2026-04-22 19:23 58.60717 -4.90019 33503 ft 450 kts 169°
2026-04-22 19:23 58.54564 -4.87399 33502 ft 450 kts 169°
2026-04-22 19:24 58.48452 -4.84798 33494 ft 450 kts 169°
2026-04-22 19:24 58.42338 -4.82205 33500 ft 450 kts 169°
2026-04-22 19:25 58.36221 -4.79632 33493 ft 451 kts 170°
2026-04-22 19:25 58.30090 -4.77058 33493 ft 452 kts 170°
2026-04-22 19:26 58.23946 -4.74482 33490 ft 453 kts 170°
2026-04-22 19:26 58.17786 -4.71906 33493 ft 453 kts 170°
2026-04-22 19:27 58.11625 -4.69355 33498 ft 453 kts 170°
2026-04-22 19:27 58.05449 -4.66794 33484 ft 456 kts 171°
2026-04-22 19:28 57.99240 -4.64217 33497 ft 458 kts 171°
2026-04-22 19:28 57.93011 -4.61660 33503 ft 459 kts 171°
2026-04-22 19:29 57.86771 -4.59097 33507 ft 459 kts 171°
2026-04-22 19:29 57.80485 -4.56531 33541 ft 458 kts 172°
2026-04-22 19:30 57.75323 -4.54431 33561 ft 455 kts 172°
2026-04-22 19:30 57.68114 -4.51497 33562 ft 452 kts 172°
2026-04-22 19:31 57.61979 -4.49021 33546 ft 450 kts 172°
2026-04-22 19:31 57.55862 -4.46558 33518 ft 450 kts 172°
2026-04-22 19:32 57.49746 -4.44112 33509 ft 450 kts 172°
2026-04-22 19:32 57.43626 -4.41669 33506 ft 450 kts 172°
2026-04-22 19:33 57.37509 -4.39222 33499 ft 450 kts 172°
2026-04-22 19:33 57.31352 -4.36764 33501 ft 450 kts 172°
2026-04-22 19:34 57.25256 -4.34121 33490 ft 451 kts 170°
2026-04-22 19:34 57.19178 -4.31217 33494 ft 451 kts 169°
2026-04-22 19:35 57.13107 -4.28290 32569 ft 454 kts 170°
2026-04-22 19:35 57.10007 -4.26842 31207 ft 463 kts 171°
2026-04-22 19:35 57.07945 -4.25892 30117 ft 461 kts 171°
2026-04-22 19:35 57.03776 -4.23987 28144 ft 456 kts 171°
2026-04-22 19:36 57.00717 -4.22585 27592 ft 452 kts 170°
2026-04-22 19:36 56.97675 -4.21194 27052 ft 448 kts 170°
2026-04-22 19:36 56.94659 -4.19812 26519 ft 445 kts 170°
2026-04-22 19:36 56.91671 -4.18439 26000 ft 442 kts 170°
2026-04-22 19:37 56.88696 -4.17074 25484 ft 437 kts 169°
2026-04-22 19:37 56.85818 -4.15752 24963 ft 416 kts 169°
2026-04-22 19:37 56.83067 -4.14490 24447 ft 401 kts 169°
2026-04-22 19:37 56.81256 -4.13666 24104 ft 395 kts 169°
2026-04-22 19:38 56.78599 -4.12465 23488 ft 390 kts 169°
2026-04-22 19:38 56.75976 -4.11276 22893 ft 388 kts 169°
2026-04-22 19:38 56.73364 -4.10093 22307 ft 387 kts 169°
2026-04-22 19:38 56.70753 -4.08919 21733 ft 386 kts 168°
2026-04-22 19:39 56.68151 -4.07747 21169 ft 384 kts 168°
2026-04-22 19:39 56.65561 -4.06576 20609 ft 383 kts 168°
2026-04-22 19:39 56.62982 -4.05412 20067 ft 381 kts 168°
2026-04-22 19:39 56.61249 -4.04630 19708 ft 380 kts 168°
2026-04-22 19:40 56.57919 -4.03125 18988 ft 362 kts 167°
2026-04-22 19:40 56.55513 -4.02045 18358 ft 353 kts 167°
2026-04-22 19:40 56.53151 -4.00991 17710 ft 347 kts 167°
2026-04-22 19:40 56.50819 -3.99953 17069 ft 343 kts 167°
2026-04-22 19:41 56.48514 -3.98953 16451 ft 338 kts 167°
2026-04-22 19:41 56.46240 -3.97985 15841 ft 334 kts 167°
2026-04-22 19:41 56.43955 -3.97036 15234 ft 332 kts 167°
2026-04-22 19:41 56.41707 -3.96122 14654 ft 329 kts 167°
2026-04-22 19:42 56.39482 -3.95243 14042 ft 327 kts 167°
2026-04-22 19:42 56.37268 -3.94372 13389 ft 325 kts 167°
2026-04-22 19:42 56.35075 -3.93511 12790 ft 320 kts 167°
2026-04-22 19:42 56.32907 -3.92664 12329 ft 317 kts 167°
2026-04-22 19:43 56.28620 -3.90999 11428 ft 312 kts 167°
2026-04-22 19:43 56.26544 -3.90194 10972 ft 298 kts 167°
2026-04-22 19:43 56.24557 -3.89427 10528 ft 285 kts 167°
2026-04-22 19:44 56.22660 -3.88686 10067 ft 274 kts 166°
2026-04-22 19:44 56.20815 -3.87930 9599 ft 269 kts 166°
2026-04-22 19:44 56.19003 -3.87195 9126 ft 263 kts 166°
2026-04-22 19:44 56.17251 -3.86497 8667 ft 254 kts 166°
2026-04-22 19:45 56.15568 -3.85838 8328 ft 241 kts 166°
2026-04-22 19:45 56.13967 -3.85247 7997 ft 229 kts 172°
2026-04-22 19:45 56.12408 -3.85140 7668 ft 219 kts 178°
2026-04-22 19:45 56.10919 -3.85207 7350 ft 209 kts 179°
2026-04-22 19:46 56.09482 -3.85310 7025 ft 208 kts 179°
2026-04-22 19:46 56.08034 -3.85423 6641 ft 204 kts 179°
2026-04-22 19:46 56.06640 -3.85531 6311 ft 198 kts 179°
2026-04-22 19:46 56.05286 -3.85648 5938 ft 192 kts 179°
2026-04-22 19:47 56.03985 -3.85771 5615 ft 183 kts 179°
2026-04-22 19:47 56.02724 -3.85893 5289 ft 181 kts 180°
2026-04-22 19:47 56.01470 -3.86009 4976 ft 179 kts 179°
2026-04-22 19:47 56.00227 -3.86133 4663 ft 179 kts 179°
2026-04-22 19:48 55.99012 -3.85833 4356 ft 176 kts 162°
2026-04-22 19:48 55.97825 -3.85185 4064 ft 175 kts 160°
2026-04-22 19:48 55.96671 -3.84513 4011 ft 175 kts 159°
2026-04-22 19:48 55.95508 -3.83839 4015 ft 176 kts 159°
2026-04-22 19:49 55.94347 -3.83165 4016 ft 175 kts 159°
2026-04-22 19:49 55.93205 -3.82497 4008 ft 175 kts 159°
2026-04-22 19:49 55.92037 -3.81807 4007 ft 175 kts 159°
2026-04-22 19:49 55.90884 -3.81123 4012 ft 175 kts 159°
2026-04-22 19:50 55.89730 -3.80440 4012 ft 175 kts 159°
2026-04-22 19:50 55.88571 -3.79757 4011 ft 176 kts 159°
2026-04-22 19:50 55.87410 -3.79079 4011 ft 175 kts 159°
2026-04-22 19:50 55.86250 -3.78403 4012 ft 176 kts 159°
2026-04-22 19:51 55.85088 -3.77724 4010 ft 175 kts 159°
2026-04-22 19:51 55.83936 -3.77020 4009 ft 175 kts 154°
2026-04-22 19:51 55.83100 -3.75545 4010 ft 174 kts 114°
2026-04-22 19:51 55.83065 -3.73407 4008 ft 180 kts 74°
2026-04-22 19:52 55.83611 -3.71379 4007 ft 181 kts 71°
2026-04-22 19:52 55.84136 -3.69333 4009 ft 183 kts 67°
2026-04-22 19:52 55.84751 -3.67346 3878 ft 184 kts 64°
2026-04-22 19:52 55.85398 -3.65404 3666 ft 181 kts 63°
2026-04-22 19:53 55.86050 -3.63489 3423 ft 180 kts 63°
2026-04-22 19:53 55.86697 -3.61598 3182 ft 177 kts 63°
2026-04-22 19:53 55.87334 -3.59736 2937 ft 173 kts 63°
2026-04-22 19:53 55.87940 -3.57969 2707 ft 164 kts 63°
2026-04-22 19:54 55.88526 -3.56254 2488 ft 160 kts 62°
2026-04-22 19:54 55.89097 -3.54584 2287 ft 157 kts 62°
2026-04-22 19:54 55.89661 -3.52933 2046 ft 150 kts 63°
2026-04-22 19:54 55.90189 -3.51385 1838 ft 146 kts 62°
2026-04-22 19:55 55.90706 -3.49872 1625 ft 134 kts 61°
2026-04-22 19:55 55.91181 -3.48481 1451 ft 128 kts 62°
2026-04-22 19:55 55.91638 -3.47136 1266 ft 126 kts 62°
2026-04-22 19:55 55.92100 -3.45808 1064 ft 126 kts 60°
2026-04-22 19:56 55.92552 -3.44474 877 ft 126 kts 61°
2026-04-22 19:56 55.92999 -3.43118 697 ft 126 kts 59°
2026-04-22 19:56 55.93466 -3.41772 498 ft 127 kts 58°
2026-04-22 19:56 55.93918 -3.40425 313 ft 126 kts 59°
2026-04-22 19:57 55.94378 -3.39087 201 ft 126 kts 59°
2026-04-22 19:57 55.94817 -3.37789 115 ft 110 kts 59°
2026-04-22 19:57 55.95112 -3.36923 114 ft 49 kts 58°
2026-04-22 19:57 55.95242 -3.36536 112 ft 20 kts 59°
2026-04-22 19:58 55.95247 -3.36409 110 ft 11 kts 132°
2026-04-22 19:58 55.95214 -3.36371 114 ft 0 kts 150°
2026-04-22 19:58 55.95198 -3.36355 113 ft 9 kts 150°
2026-04-22 19:58 55.95154 -3.36312 115 ft 13 kts 158°
2026-04-22 19:59 55.95088 -3.36419 114 ft 22 kts 239°
2026-04-22 20:00 55.94779 -3.36771 116 ft 8 kts 164°
2026-04-22 20:00 55.94735 -3.36738 115 ft 6 kts 170°
2026-04-22 20:01 55.94694 -3.36736 116 ft 6 kts 179°
2026-04-22 20:01 55.94657 -3.36735 116 ft 5 kts 179°
2026-04-22 20:01 55.94626 -3.36734 116 ft 4 kts 178°
2026-04-22 20:01 55.94611 -3.36687 116 ft 6 kts 88°
2026-04-22 20:02 55.94612 -3.36618 116 ft 1 kts 89°